Regional Weather Roundup
Issued by NWS Sioux Falls, SD

Home | Current Version | Previous Version | Text Only | Print | Product List | Glossary On
Versions: 1 2 3 4 5 6 7 8 9 10 11 12 13 14 15 16 17 18 19 20 21 22 23 24 25 26 27 28 29 30 31 32 33 34 35 36 37 38 39 40 41 42 43 44 45 46 47 48 49 50
000
ASUS43 KFSD 311310
RWRFSD

WEATHER ROUNDUP FOR SE SOUTH DAKOTA/SW MINNESOTA/NW IOWA
NATIONAL WEATHER SERVICE SIOUX FALLS SD
800 AM CDT FRI JUL 31 2015

NOTE: "FAIR" INDICATES FEW OR NO CLOUDS BELOW 12,000 FEET WITH NO
SIGNIFICANT WEATHER AND OR OBSTRUCTIONS TO VISIBILITY.


SDZ038>040-050-052>070-311400-
SOUTHEAST SOUTH DAKOTA

CITY           SKY/WX    TMP DP  RH WIND       PRES   REMARKS
BROOKINGS      SUNNY     61  55  82 CALM      30.19S
CHAMBERLAIN    SUNNY     66  58  75 CALM      30.17S
HURON          SUNNY     65  58  78 CALM      30.16S
MADISON        FAIR      63  63 100 NE5       30.18R
MITCHELL       SUNNY     65  60  84 CALM      30.17R
SIOUX FALLS    MOSUNNY   65  61  87 N3        30.17R
WINNER         FAIR      66  57  72 NE3       30.18R
YANKTON          N/A    N/A N/A N/A MISG        N/A
$$

MNZ071-072-080-081-089-090-097-098-311400-
SOUTHWEST MINNESOTA

CITY           SKY/WX    TMP DP  RH WIND       PRES   REMARKS
FAIRMONT       PTSUNNY   68  55  64 NW7       30.14R
JACKSON        MOSUNNY   66  61  82 NW5       30.16R
LUVERNE        SUNNY     64  61  88 CALM      30.17R
MARSHALL       SUNNY     66  54  63 NW6       30.16R
MONTEVIDEO     SUNNY     68  61  77 NW6       30.15S
PIPESTONE      SUNNY     66  55  68 CALM      30.17R
REDWOOD FALLS  SUNNY     66  57  72 NW5       30.13R
TRACY          MOSUNNY   66  57  72 W5        30.16S
WINDOM         MOSUNNY   64  57  77 CALM      30.16R
WORTHINGTON    PTSUNNY   64  57  77 CALM      30.17R
$$

IAZ001>003-012>014-020>022-031-032-NEZ013-014-SDZ071-311400-
NORTHWEST IOWA

CITY           SKY/WX    TMP DP  RH WIND       PRES   REMARKS
CHEROKEE       SUNNY     67  67  99 CALM      30.15R
DENISON        SUNNY     66  64  94 CALM      30.15R
ESTHERVILLE    MOSUNNY   67  62  84 NW5       30.15R
LE MARS        MOSUNNY   68  66  94 CALM      30.16R
ORANGE CITY    SUNNY     70  64  83 CALM      30.16R
SHELDON        SUNNY     66  63  88 CALM      30.15R
SIOUX CITY     SUNNY     68  64  87 S5        30.15R
SPENCER        MOSUNNY   66  61  84 W3        30.16R
STORM LAKE     MOSUNNY   72  66  83 NW5       30.17R
$$

ABBREVIATIONS USED IN REMARKS
   TC - TEMPERATURE IN CELSIUS
  WCI - WIND CHILL INDEX
   HX - HEAT INDEX
  VSB - VISIBILITY



USA.gov is the U.S. government's official web portal to all federal, state and local government web resources and services.